| time (UTC) | temp F | wind direction | speed MPH | gust MPH | rain 1hr in | rain 24hr in | rain mn in | humidity % | barometer mb |
| 20260903134601 | 60 | 276 | 3.0 | 6.0 | 0.00 | 0.00 | 0.00 | 67 | 1011.1 |
| 20260903133102 | 59 | 271 | 3.0 | 9.0 | 0.00 | 0.00 | 0.00 | 69 | 1010.9 |
| 20260903131558 | 58 | 263 | 4.0 | 7.0 | 0.00 | 0.00 | 0.00 | 70 | 1011.0 |
| 20260903130059 | 57 | 266 | 5.0 | 9.0 | 0.00 | 0.00 | 0.00 | 72 | 1010.8 |
| 20260903124608 | 57 | 265 | 4.0 | 9.0 | 0.00 | 0.00 | 0.00 | 72 | 1010.8 |
| 20260903123058 | 56 | 266 | 5.0 | 8.0 | 0.00 | 0.00 | 0.00 | 73 | 1010.8 |
| 20260903121603 | 56 | 287 | 4.0 | 8.0 | 0.00 | 0.00 | 0.00 | 73 | 1010.8 |
| 20260903120104 | 56 | 264 | 4.0 | 8.0 | 0.00 | 0.00 | 0.00 | 73 | 1010.8 |
| 20260903114558 | 56 | 279 | 4.0 | 8.0 | 0.00 | 0.00 | 0.00 | 73 | 1010.7 |
| 20260903113136 | 57 | 257 | 4.0 | 7.0 | 0.00 | 0.00 | 0.00 | 73 | 1010.7 |
| 20260903111558 | 57 | 261 | 4.0 | 9.0 | 0.00 | 0.00 | 0.00 | 72 | 1010.6 |
| 20260903110100 | 57 | 270 | 5.0 | 8.0 | 0.00 | 0.00 | 0.00 | 73 | 1010.5 |
| 20260903104609 | 57 | 264 | 4.0 | 9.0 | 0.00 | 0.00 | 0.00 | 73 | 1010.6 |
| 20260903103102 | 57 | 266 | 5.0 | 10.0 | 0.00 | 0.00 | 0.00 | 73 | 1010.7 |
| 20260903101602 | 57 | 269 | 7.0 | 12.0 | 0.00 | 0.00 | 0.00 | 73 | 1010.6 |
| 20260903100100 | 57 | 261 | 7.0 | 12.0 | 0.00 | 0.00 | 0.00 | 72 | 1010.7 |
| 20260903094559 | 57 | 284 | 6.0 | 10.0 | 0.00 | 0.00 | 0.00 | 72 | 1010.9 |
| 20260903093104 | 56 | 262 | 5.0 | 8.0 | 0.00 | 0.00 | 0.00 | 73 | 1010.9 |
| 20260903091601 | 56 | 235 | 3.0 | 8.0 | 0.00 | 0.00 | 0.00 | 74 | 1011.2 |
| 20260903090058 | 58 | 261 | 4.0 | 9.0 | 0.00 | 0.00 | 0.00 | 72 | 1011.2 |
| 20260903084601 | 58 | 262 | 4.0 | 9.0 | 0.00 | 0.00 | 0.00 | 72 | 1011.1 |
| 20260903083100 | 58 | 266 | 5.0 | 9.0 | 0.00 | 0.00 | 0.00 | 72 | 1011.2 |
| 20260903081559 | 58 | 270 | 5.0 | 10.0 | 0.00 | 0.00 | 0.00 | 72 | 1011.1 |
| 20260903080101 | 58 | 262 | 3.0 | 6.0 | 0.00 | 0.00 | 0.00 | 73 | 1011.4 |
| 20260903074558 | 59 | 286 | 2.0 | 4.0 | 0.00 | 0.00 | 0.00 | 73 | 1011.6 |
| 20260903073058 | 59 | 261 | 3.0 | 7.0 | 0.00 | 0.00 | 0.00 | 72 | 1011.6 |
| 20260903071607 | 59 | 260 | 3.0 | 6.0 | 0.00 | 0.00 | 0.00 | 73 | 1011.5 |
| 20260903070059 | 59 | 323 | 2.0 | 4.0 | 0.00 | 0.00 | 0.00 | 72 | 1011.6 |
| 20260903070003 | 59 | 322 | 2.0 | 4.0 | 0.00 | 0.00 | 0.00 | 72 | 1011.6 |
| 20260903064602 | 59 | 281 | 4.0 | 7.0 | 0.00 | 0.00 | 0.00 | 72 | 1011.5 |
| 20260903063101 | 60 | 268 | 3.0 | 9.0 | 0.00 | 0.00 | 0.00 | 71 | 1011.7 |
| 20260903063001 | 60 | 270 | 3.0 | 9.0 | 0.00 | 0.00 | 0.00 | 71 | 1011.7 |
| 20260903061605 | 60 | 329 | 1.0 | 6.0 | 0.00 | 0.00 | 0.00 | 71 | 1011.9 |
| 20260903060004 | 61 | 146 | 2.0 | 7.0 | 0.00 | 0.00 | 0.00 | 70 | 1011.9 |
| 20260903054600 | 61 | 269 | 3.0 | 6.0 | 0.00 | 0.00 | 0.00 | 70 | 1011.8 |
| 20260903053101 | 61 | 258 | 3.0 | 7.0 | 0.00 | 0.00 | 0.00 | 70 | 1012.0 |
| 20260903051614 | 61 | 263 | 2.0 | 6.0 | 0.00 | 0.00 | 0.00 | 69 | 1011.8 |
| 20260903050100 | 61 | 360 | 3.0 | 8.0 | 0.00 | 0.00 | 0.00 | 69 | 1012.1 |
| 20260903044601 | 61 | 360 | 3.0 | 7.0 | 0.00 | 0.00 | 0.00 | 69 | 1012.0 |
| 20260903043203 | 62 | 281 | 4.0 | 8.0 | 0.00 | 0.00 | 0.00 | 69 | 1011.9 |
| 20260903041606 | 62 | 269 | 5.0 | 10.0 | 0.00 | 0.00 | 0.00 | 68 | 1012.1 |
| 20260903040008 | 62 | 270 | 4.0 | 8.0 | 0.00 | 0.00 | 0.00 | 68 | 1012.0 |
| 20260903034600 | 63 | 300 | 5.0 | 9.0 | 0.00 | 0.00 | 0.00 | 67 | 1012.0 |
| 20260903034501 | 63 | 312 | 4.0 | 9.0 | 0.00 | 0.00 | 0.00 | 67 | 1012.0 |
| 20260903033002 | 64 | 261 | 4.0 | 9.0 | 0.00 | 0.00 | 0.00 | 66 | 1011.8 |
| 20260903031500 | 64 | 275 | 4.0 | 8.0 | 0.00 | 0.00 | 0.00 | 66 | 1011.8 |
| 20260903024605 | 65 | 271 | 3.0 | 6.0 | 0.00 | 0.00 | 0.00 | 64 | 1011.4 |
| 20260903023059 | 68 | 360 | 2.0 | 4.0 | 0.00 | 0.00 | 0.00 | 57 | 1011.2 |
| 20260903021600 | 69 | 317 | 0.0 | 2.0 | 0.00 | 0.00 | 0.00 | 55 | 1010.9 |
| 20260903020059 | 70 | 317 | 1.0 | 2.0 | 0.00 | 0.00 | 0.00 | 54 | 1010.9 |
| 20260903020010 | 70 | 317 | 1.0 | 2.0 | 0.00 | 0.00 | 0.00 | 54 | 1010.9 |
| 20260903014500 | 71 | 317 | 1.0 | 4.0 | 0.00 | 0.00 | 0.00 | 51 | 1010.8 |
| 20260903013108 | 71 | 302 | 1.0 | 3.0 | 0.00 | 0.00 | 0.00 | 53 | 1010.7 |
| 20260903013000 | 71 | 263 | 1.0 | 3.0 | 0.00 | 0.00 | 0.00 | 53 | 1010.7 |
| 20260903011501 | 72 | 262 | 2.0 | 3.0 | 0.00 | 0.00 | 0.00 | 50 | 1010.5 |
| 20260903010105 | 73 | 262 | 1.0 | 3.0 | 0.00 | 0.00 | 0.00 | 52 | 1010.5 |
| 20260903004605 | 73 | 82 | 1.0 | 5.0 | 0.00 | 0.00 | 0.00 | 52 | 1010.7 |
| 20260903003100 | 73 | 92 | 5.0 | 10.0 | 0.00 | 0.00 | 0.00 | 52 | 1010.8 |
| 20260903001559 | 73 | 132 | 5.0 | 11.0 | 0.00 | 0.00 | 0.00 | 53 | 1010.6 |
| 20260903000059 | 75 | 130 | 3.0 | 6.0 | 0.00 | 0.00 | 0.00 | 49 | 1010.5 |
| 20260902234615 | 75 | 106 | 6.0 | 11.0 | 0.00 | 0.00 | 0.00 | 50 | 1010.6 |
| 20260902233102 | 78 | 142 | 6.0 | 12.0 | 0.00 | 0.00 | 0.00 | 45 | 1010.4 |
| 20260902231610 | 78 | 53 | 1.0 | 6.0 | 0.00 | 0.00 | 0.00 | 44 | 1010.5 |
| 20260902230105 | 79 | 45 | 3.0 | 14.0 | 0.00 | 0.00 | 0.00 | 42 | 1010.6 |
| 20260902230001 | 79 | 76 | 4.0 | 14.0 | 0.00 | 0.00 | 0.00 | 41 | 1010.6 |
| 20260902224611 | 80 | 28 | 5.0 | 12.0 | 0.00 | 0.00 | 0.00 | 39 | 1010.7 |
| 20260902223059 | 82 | 100 | 5.0 | 10.0 | 0.00 | 0.00 | 0.00 | 37 | 1010.9 |
| 20260902221605 | 83 | 232 | 2.0 | 11.0 | 0.00 | 0.00 | 0.00 | 36 | 1011.1 |
| 20260902220059 | 82 | 282 | 3.0 | 9.0 | 0.00 | 0.00 | 0.00 | 35 | 1011.1 |
| 20260902214602 | 80 | 246 | 9.0 | 15.0 | 0.00 | 0.00 | 0.00 | 36 | 1011.2 |
| 20260902213113 | 79 | 230 | 3.0 | 9.0 | 0.00 | 0.00 | 0.00 | 37 | 1011.5 |
| 20260902211604 | 79 | 248 | 6.0 | 16.0 | 0.00 | 0.00 | 0.00 | 38 | 1011.6 |
| 20260902210100 | 80 | 286 | 5.0 | 13.0 | 0.00 | 0.00 | 0.00 | 38 | 1011.8 |
| 20260902204559 | 80 | 261 | 8.0 | 14.0 | 0.00 | 0.01 | 0.00 | 37 | 1012.1 |
| 20260902203106 | 78 | 286 | 4.0 | 14.0 | 0.00 | 0.01 | 0.00 | 39 | 1012.4 |
| 20260902201607 | 79 | 250 | 5.0 | 13.0 | 0.00 | 0.01 | 0.00 | 38 | 1012.7 |
| 20260902200134 | 80 | 271 | 5.0 | 12.0 | 0.00 | 0.01 | 0.00 | 38 | 1013.0 |
| 20260902194559 | 79 | 315 | 2.0 | 15.0 | 0.00 | 0.05 | 0.00 | 38 | 1013.2 |
| 20260902193101 | 77 | 224 | 0.0 | 17.0 | 0.00 | 0.05 | 0.00 | 42 | 1013.5 |
| 20260902191600 | 77 | 251 | 6.0 | 12.0 | 0.00 | 0.05 | 0.00 | 41 | 1013.7 |
| 20260902190109 | 79 | 267 | 5.0 | 11.0 | 0.00 | 0.05 | 0.00 | 39 | 1014.0 |
| 20260902190001 | 79 | 265 | 6.0 | 11.0 | 0.00 | 0.05 | 0.00 | 39 | 1014.0 |
| 20260902184601 | 79 | 263 | 5.0 | 12.0 | 0.00 | 0.25 | 0.00 | 40 | 1014.4 |
| 20260902183108 | 79 | 250 | 6.0 | 11.0 | 0.00 | 0.25 | 0.00 | 39 | 1014.7 |
| 20260902181600 | 78 | 308 | 5.0 | 10.0 | 0.00 | 0.25 | 0.00 | 40 | 1014.8 |
| 20260902180116 | 76 | 236 | 4.0 | 14.0 | 0.00 | 0.25 | 0.00 | 42 | 1015.2 |
| 20260902174600 | 77 | 194 | 8.0 | 13.0 | 0.00 | 0.26 | 0.00 | 40 | 1015.3 |
| 20260902173100 | 77 | 260 | 4.0 | 16.0 | 0.00 | 0.26 | 0.00 | 41 | 1015.4 |
| 20260902171602 | 79 | 239 | 7.0 | 14.0 | 0.00 | 0.26 | 0.00 | 41 | 1015.7 |
| 20260902170059 | 77 | 254 | 5.0 | 10.0 | 0.00 | 0.26 | 0.00 | 43 | 1015.9 |
| 20260902164559 | 77 | 215 | 5.0 | 14.0 | 0.00 | 0.26 | 0.00 | 42 | 1015.8 |
| 20260902163101 | 76 | 263 | 8.0 | 14.0 | 0.00 | 0.26 | 0.00 | 44 | 1015.7 |
| 20260902161558 | 76 | 260 | 7.0 | 18.0 | 0.00 | 0.26 | 0.00 | 44 | 1015.8 |
| 20260902160105 | 75 | 200 | 7.0 | 16.0 | 0.00 | 0.26 | 0.00 | 46 | 1015.7 |
| 20260902154559 | 74 | 246 | 4.0 | 12.0 | 0.00 | 0.26 | 0.00 | 49 | 1015.6 |
| 20260902153058 | 73 | 251 | 3.0 | 8.0 | 0.00 | 0.26 | 0.00 | 53 | 1015.6 |
| 20260902151558 | 72 | 304 | 0.0 | 8.0 | 0.00 | 0.26 | 0.00 | 56 | 1015.7 |
| 20260902150058 | 69 | 301 | 2.0 | 6.0 | 0.00 | 0.26 | 0.00 | 59 | 1015.7 |
| 20260902144602 | 66 | 283 | 0.0 | 2.0 | 0.00 | 0.26 | 0.00 | 67 | 1015.8 |
| 20260902143100 | 63 | 311 | 2.0 | 4.0 | 0.00 | 0.26 | 0.00 | 71 | 1015.8 |
| 20260902141605 | 60 | 303 | 1.0 | 3.0 | 0.00 | 0.26 | 0.00 | 74 | 1016.0 |